Regional Weather Roundup
Issued by NWS Newport/Morehead, NC

Home | Current Version | Previous Version | Text Only | Print | Product List | Glossary On
Versions: 1 2 3 4 5 6 7 8 9 10 11 12 13 14 15 16 17 18 19 20 21 22 23 24 25 26 27 28 29 30 31 32 33 34 35 36 37 38 39 40 41 42 43 44 45 46 47 48 49 50
000
ASUS42 KMHX 162313
RWRMHX
WEATHER ROUNDUP FOR EASTERN NORTH CAROLINA
NATIONAL WEATHER SERVICE NEWPORT/MOREHEAD CITY NC
600 PM EST TUE JAN 16 2018

NOTE: "FAIR" INDICATES FEW OR NO CLOUDS BELOW 12,000 FEET
WITH NO SIGNIFICANT WEATHER AND/OR OBSTRUCTIONS TO VISIBILITY

NCZ015>017-031-032-045>047-102-103-170000-
NORTH COAST

CITY           SKY/WX    TMP DP  RH WIND       PRES   REMARKS
EDENTON        FAIR      38  35  89 CALM      30.37R
ELIZABETH CITY FAIR      39  37  92 CALM      30.36R
KITTY HAWK     CLOUDY   N/A N/A N/A CALM      30.35R HAZE
MANTEO         CLOUDY    34  34  99 CALM      30.37R FOG

$$

NCZ045>047-081-094-103-104-170000-
CENTRAL COAST

CITY           SKY/WX    TMP DP  RH WIND       PRES   REMARKS
FRISCO         FAIR      38  38 100 VRB5      30.36R

$$

NCZ095-097-098-100-101-170000-
SOUTHERN COAST

CITY           SKY/WX    TMP DP  RH WIND       PRES   REMARKS
BEAUFORT       FAIR      40  37  89 CALM      30.36S
CEDAR ISLAND   NOT AVBL
JACKSONVILLE   FAIR      47  30  51 NW3       30.36S
PINEY ISLAND   NOT AVBL
WILMINGTON     FAIR      45  30  55 CALM      30.37S


$$

NCZ011>013-027>030-043-044-078>080-089-090>093-098-170000-
COASTAL PLAIN

CITY           SKY/WX    TMP DP  RH WIND       PRES   REMARKS
AHOSKIE        FAIR      35  29  79 CALM      30.36S
CLINTON        FAIR      40  27  59 CALM      30.37F
ELIZABETHTOWN  NOT AVBL
GOLDSBORO      FAIR      42  25  50 W3        30.35S
GREENVILLE     FAIR      41  23  48 CALM      30.37S
HAVELOCK       NOT AVBL
KENANSVILLE    FAIR      37  28  70 CALM      30.37S
KINSTON        FAIR      39  28  65 CALM      30.37S
NEW BERN       FAIR      42  31  64 CALM      30.37R
RICHLANDS      FAIR      42  33  70 CALM      30.37S
ROCKY MOUNT    FAIR      36  28  73 CALM      30.36S
WASHINGTON     FAIR      42  31  64 CALM      30.37R
WHITEVILLE     FAIR      45  29  53 CALM      30.35F

$$

AMZ130-135-150-152-154-156-158-170-250-252-270-ANZ085-086-088-633-658-670-170000-
MARINE OBSERVATIONS

STATION/POSITION TIME  TEMP    WIND        PRES    WAVE   SWELL
                       AIR SEA DIR/SP/G            HT/PER HT/PER
                 (UTC) (F)     (DEG/KT/KT) (MB)    (FT/S) (FT/S)
CHESAPEAKE LIGHT NOT AVBL
64 E VA BEACH    2250   45 63  300/ 12/ 14 1027.4    8/10   8/10
DUCK             2236   35 38  360/  5/  6 1027.4
2 E DUCK         2230      39                N/A     5/10   2/11
OREGON INLET     2236   35 41  340/  6/  9 1027.9
13E OREGON INLT  2248      45                N/A     7/11   7/11
HATTERAS CG      2236   39 47  360/  8/ 10 1027.5
DIAMOND BUOY     2300   47 67  350/ 12/ 16 1028.0
CAPE LOOKOUT     2300          350/  6/  6 1028.2
BEAUFORT LAB     2236   45 45   CALM  /  1 1028.1
30 SE NEW RVR IN 2208   49 59  340/  2/  4 1028.2
30 SE NEW RVR IN 2230      60                N/A     4/10   2/11
27 SE WRIGHTSVLE 2208   51 63  340/  6/ 10 1028.0
5 SE WRIGHTSVLE  2208   48 47  170/  4/  6 1027.9
225 S CAPE HAT   2250   65 71  130/ 10/ 14 1025.0    9/11   8/11
41 SE CHARLESTON 2300   54 69   30/  4/  8 1027.5

$$




USA.gov is the U.S. government's official web portal to all federal, state and local government web resources and services.